Regional Weather Roundup
Issued by NWS Goodland, KS

Home | Current Version | Previous Version | Graphics & Text | Print | Product List | Glossary On
Versions: 1 2 3 4 5 6 7 8 9 10 11 12 13 14 15 16 17 18 19 20 21 22 23 24 25 26 27 28 29 30 31 32 33 34 35 36 37 38 39 40 41 42 43 44 45 46 47 48 49 50
000
ASUS43 KGLD 232108
RWRGLD

GOODLAND FORECAST AREA HOURLY WEATHER ROUNDUP
NATIONAL WEATHER SERVICE GOODLAND KS
300 PM MDT MON APR 23 2018

...OFFICIAL OBSERVATIONS...

CITY           SKY/WX    TMP DP  RH WIND       PRES   REMARKS
GOODLAND KS    SUNNY     67  39  35 S15G26    30.06F
HILL CITY KS   PTSUNNY   69  40  34 VRB7      30.08F
IMPERIAL NEB   MOSUNNY   68  38  33 SE16G26   30.05F
MCCOOK NEB     MOSUNNY   69  42  37 SE15G22   30.07F
AKRON CO       PTSUNNY   66  43  43 S22G31    30.03F
BURLINGTON CO  MOSUNNY   65  41  41 SE14G24   30.07F
LIMON CO       MOSUNNY   68  38  33 S14G24    30.05F
$$

...UNOFFICIAL OBSERVATIONS...

CITY           SKY/WX    TMP DP  RH WIND       PRES   REMARKS
COLBY KS         N/A     70  41  35 SE12G21   30.08F
NORTON KS      MOSUNNY   72  39  30 S7G16     30.07
KIT CARSON CO    N/A     63  41  44 MISG        N/A
YUMA CO        FAIR      64  25  22 SE15G21   30.04S
$$




USA.gov is the U.S. government's official web portal to all federal, state and local government web resources and services.